Wind_Speed
38 36 35 34 34 33 33 34 33 32 31 31 32 31 29 29 31 30 28 26 24 22 20 19 20 20 19 19 16 14 18 19 16 14 14 14 13 13 12 10 10 7
38 37 35 35 35 34 33 34 35 34 33 33 32 30 29 30 32 30 29 29 26 23 22 21 21 21 20 20 18 16 19 20 17 15 16 15 14 15 14 11 10 9
39 37 37 36 36 34 33 34 35 35 34 34 33 32 31 31 31 31 31 31 28 25 24 23 23 23 22 21 21 19 20 20 18 17 17 16 15 15 15 13 11 10
39 38 38 37 36 35 33 33 35 35 34 33 34 33 33 32 31 31 33 32 28 26 26 25 24 25 24 23 23 23 22 21 18 18 18 18 17 15 15 15 13 12
41 39 38 38 36 35 34 34 35 35 34 34 34 34 34 34 32 32 33 33 30 27 27 27 26 27 26 25 25 25 24 23 21 20 19 19 19 17 15 15 14 13
41 39 38 38 37 36 35 35 35 35 35 34 34 35 35 36 34 34 34 33 32 30 29 29 29 29 29 28 27 26 25 25 23 23 21 19 20 19 17 16 16 15
40 40 39 38 37 37 37 35 35 36 36 35 35 35 36 37 37 36 35 34 33 32 31 31 31 31 31 30 29 27 26 25 24 24 23 20 20 20 20 18 18 17
40 40 39 38 37 37 37 36 35 36 36 36 36 36 36 38 39 38 37 36 35 35 34 33 33 33 32 31 31 29 28 26 25 25 25 23 22 21 20 18 18 19
39 39 39 38 38 38 37 37 36 36 36 37 38 37 36 38 40 40 39 37 37 37 36 35 35 34 33 33 33 32 29 28 27 27 27 26 25 24 22 20 19 19
39 39 39 39 39 38 38 38 37 37 37 38 38 38 37 38 39 40 40 39 39 38 37 36 36 35 35 34 33 31 30 29 28 27 28 28 28 27 25 24 23 20
39 40 40 40 40 39 38 38 38 38 38 38 38 38 38 38 39 40 41 41 40 40 39 38 37 36 35 33 31 31 30 30 29 29 28 28 29 28 26 25 24 22
40 40 41 41 41 40 39 39 39 39 39 39 39 39 39 40 41 42 42 42 42 41 40 39 37 36 34 31 30 31 31 31 31 30 29 28 28 29 27 25 24 23
41 42 42 41 41 41 41 41 40 39 39 40 40 39 39 41 42 42 43 42 41 40 40 39 37 35 33 32 31 33 32 32 32 32 31 29 28 29 28 26 25 24
43 42 42 41 42 42 41 40 40 40 40 40 40 39 39 41 42 42 42 41 40 39 39 38 37 34 34 35 36 36 35 34 34 33 32 31 30 29 28 26 25 23
43 42 41 41 41 41 41 41 41 40 40 40 40 40 39 39 40 41 40 39 38 38 37 37 36 35 36 39 39 38 37 36 36 35 33 32 30 28 27 26 25 23
42 41 41 41 41 41 42 42 41 40 39 39 40 40 39 38 38 39 39 38 37 37 37 37 36 35 38 41 40 39 39 37 35 34 33 31 29 27 27 26 25 23
41 41 41 41 42 42 42 41 40 39 38 37 39 40 39 37 37 37 38 38 37 37 37 37 35 35 39 42 41 39 39 37 34 33 32 31 29 28 27 27 25 23
40 40 40 41 41 41 40 40 38 37 36 36 37 39 38 37 36 37 38 37 36 37 37 36 35 35 38 41 42 40 38 35 33 32 31 30 30 29 28 26 24 22
40 40 40 40 40 39 38 37 36 36 36 36 36 37 37 36 36 36 36 36 37 37 36 35 34 34 36 39 40 40 38 34 31 31 31 29 28 28 27 25 23 21
39 40 39 38 38 37 35 35 35 35 35 33 33 35 36 36 35 34 35 36 37 36 36 35 33 34 35 36 38 40 38 32 27 27 29 28 27 27 26 25 23 21
39 38 37 36 36 35 34 34 34 34 33 31 30 33 35 34 33 33 34 35 35 35 34 33 32 33 33 35 37 36 31 27 26 26 26 27 27 27 26 25 22 20
38 36 35 34 34 33 33 32 32 32 31 29 27 28 31 32 32 33 34 33 33 32 31 30 30 31 31 32 34 32 28 27 30 29 27 27 27 26 25 23 21 20
37 36 34 33 33 32 31 31 31 31 30 28 26 26 29 31 30 31 32 32 31 30 29 28 28 28 28 30 34 37 35 33 33 31 28 27 26 25 23 20 19 19
37 36 35 33 33 32 30 29 29 30 30 29 27 27 29 31 30 29 29 30 30 30 30 30 29 29 30 33 39 43 40 36 34 31 27 24 23 23 23 20 18 17
37 36 34 33 32 31 30 29 29 30 30 30 29 28 29 30 30 29 27 27 28 29 30 31 30 30 32 36 42 42 36 32 32 32 28 24 22 21 20 19 20 21
35 35 34 33 32 31 31 31 30 29 29 29 27 25 25 27 28 28 26 24 24 26 28 30 31 31 33 37 40 38 32 30 32 32 29 26 22 19 18 19 22 26
Wind_Direction
201 200 200 199 199 199 197 196 196 193 189 188 190 191 192 192 190 191 194 196 197 197 200 204 203 203 201 198 200 202 199 200 202 199 198 206 211 198 191 204 215 221
201 201 200 199 200 200 199 198 197 195 194 194 195 194 194 193 194 196 196 196 197 198 200 204 203 204 207 203 201 200 197 198 201 198 200 208 210 202 196 201 216 228
202 201 200 200 200 200 200 199 197 196 197 197 198 197 196 195 195 197 197 196 198 200 201 204 203 204 207 205 202 199 195 198 202 201 205 214 215 209 202 200 209 219
201 201 201 200 200 200 199 198 197 197 197 197 199 199 197 196 196 197 197 197 200 202 203 204 204 204 206 206 205 204 201 200 202 203 210 218 218 213 205 202 209 217
201 201 201 201 201 200 199 198 197 196 196 197 198 199 198 196 196 196 196 198 201 204 204 203 205 206 206 205 206 207 206 205 203 203 212 218 216 215 210 205 210 217
201 201 201 201 201 200 200 199 198 197 197 197 197 199 198 197 196 197 197 199 202 204 203 203 204 207 207 206 207 208 208 208 206 206 212 219 217 214 212 210 213 217
201 200 200 200 200 201 201 200 199 199 198 198 198 199 199 198 197 197 199 201 202 203 204 203 204 206 208 208 207 209 211 210 208 208 212 219 219 214 212 213 215 215
200 200 200 200 200 202 202 201 200 199 199 199 199 199 200 199 198 197 199 202 202 203 204 204 204 205 207 208 208 209 212 211 208 209 212 217 218 214 211 212 215 217
200 200 200 200 201 202 203 202 202 201 200 200 201 201 201 200 199 198 200 203 203 204 204 203 203 204 206 207 207 208 209 211 211 211 213 217 218 216 212 212 217 220
200 200 200 200 201 202 203 203 203 203 201 202 202 202 202 201 200 200 202 204 204 204 204 203 203 204 205 206 207 208 210 211 213 214 216 218 220 220 218 215 217 218
201 201 200 201 201 202 203 203 204 204 203 203 202 202 202 202 201 201 204 205 205 204 204 204 204 204 204 204 205 208 212 215 216 217 219 221 221 222 221 217 216 219
203 202 201 201 202 202 203 203 204 204 204 204 203 202 202 203 202 203 205 207 207 206 205 205 204 203 201 201 204 208 213 218 219 219 221 223 223 222 221 219 217 219
204 203 202 202 202 203 204 204 204 205 205 205 205 203 203 203 204 205 206 208 208 207 207 206 204 200 196 198 204 208 211 216 219 220 221 224 225 222 220 220 220 222
205 204 203 202 203 204 204 205 205 205 205 206 205 205 205 205 205 205 207 208 209 208 207 206 203 198 192 195 205 210 210 213 216 217 219 223 226 224 220 222 225 226
205 204 203 203 203 204 205 206 206 206 206 206 205 206 207 207 207 207 206 207 208 208 207 205 203 197 192 196 205 209 210 212 214 215 216 219 223 224 223 224 226 228
204 203 203 203 203 204 205 206 206 206 205 205 206 206 207 208 208 207 207 207 207 206 206 205 203 198 195 199 205 208 209 211 213 213 213 215 218 219 220 222 225 228
203 202 202 203 203 204 205 205 205 205 204 204 205 206 207 207 207 207 207 208 207 206 207 206 203 200 198 202 206 209 210 210 212 212 211 213 215 215 217 221 224 228
201 201 201 202 203 204 204 204 203 202 203 203 203 204 205 205 205 207 207 207 207 207 207 206 204 202 202 204 206 209 212 211 210 210 209 212 214 216 219 221 222 224
199 199 200 202 202 203 203 202 201 201 202 202 202 202 202 203 205 206 206 206 207 206 207 207 205 203 205 205 206 210 214 213 210 210 210 210 212 214 217 218 218 221
197 197 198 199 200 201 200 200 200 200 201 201 201 200 200 202 204 204 203 204 205 205 206 207 206 206 206 206 207 210 212 212 212 213 213 213 212 212 215 215 217 222
194 194 195 196 196 196 197 197 198 198 199 199 200 200 201 202 202 202 202 202 202 204 205 206 208 208 206 207 208 207 208 215 220 220 219 218 214 213 216 216 215 221
190 189 189 190 190 190 191 192 193 194 196 196 199 200 199 200 202 201 201 200 200 202 202 204 209 209 207 207 205 199 202 217 226 225 224 221 214 212 215 216 214 218
184 183 182 182 182 183 184 186 188 190 192 194 197 196 195 198 199 199 200 200 198 198 199 202 206 208 206 203 199 196 199 212 223 225 221 216 211 209 212 216 216 220
178 177 176 176 176 177 178 180 184 187 190 194 196 195 195 196 196 196 199 199 197 197 198 200 203 206 205 201 199 199 202 212 221 219 212 209 208 210 214 219 218 223
172 171 171 170 171 174 176 180 184 188 191 195 197 197 196 196 196 195 195 195 196 196 197 200 203 204 203 200 198 201 207 215 217 214 211 209 207 205 206 209 214 221
165 165 165 166 169 174 179 183 185 188 191 194 196 197 195 194 197 198 195 194 194 193 195 200 203 201 198 197 200 205 211 213 210 210 211 208 201 195 193 203 217 225
Height
780 782 785 787 789 791 793 795 797 799 801 802 804 806 808 810 812 814 816 817 819 819 821 822 824 825 826 827 828 829 830 830 831 832 833 834 835 835 835 836 836 837
776 779 782 784 786 788 790 792 795 796 798 800 802 804 806 808 810 812 813 815 816 817 818 820 822 823 824 825 826 827 828 829 830 830 831 832 833 834 834 835 836 836
773 775 778 780 782 785 788 790 792 794 795 798 799 802 804 806 807 809 810 812 813 815 816 818 819 821 822 823 824 825 826 827 828 829 830 831 832 833 833 834 834 835
769 772 774 777 779 782 785 787 789 791 793 795 797 799 801 803 805 806 808 809 811 812 813 815 817 818 819 820 821 823 824 825 826 827 829 829 830 831 832 833 833 834
766 769 771 774 776 779 782 784 786 788 790 792 794 796 798 800 802 803 805 807 808 809 810 812 814 816 817 818 819 820 821 823 824 826 827 828 828 829 830 831 832 832
763 765 768 771 773 776 779 780 783 785 787 790 791 793 795 797 799 800 801 803 804 806 808 809 811 812 814 815 817 818 819 821 822 824 825 826 827 827 828 829 830 830
759 762 765 768 770 773 775 777 780 782 784 787 788 790 791 793 795 796 798 799 801 803 804 805 807 809 811 813 815 816 817 819 820 821 823 824 825 826 826 827 828 828
756 759 762 765 767 770 772 775 777 779 781 784 785 787 788 789 791 793 795 796 797 799 800 802 803 806 809 811 813 814 816 817 818 819 820 822 823 824 824 825 826 826
753 756 758 761 764 766 769 771 774 776 778 780 781 783 785 786 788 789 791 792 793 795 796 798 801 803 805 807 809 811 813 815 817 817 818 820 821 822 822 823 823 824
750 752 755 758 760 762 765 767 770 772 774 776 778 780 781 783 785 786 788 789 789 791 793 795 798 800 802 805 808 811 813 815 816 816 817 818 819 819 820 821 821 821
746 749 751 753 755 758 761 764 766 768 770 772 774 776 778 779 781 782 783 784 785 787 790 792 794 797 800 804 808 811 812 814 815 815 816 816 817 818 818 819 819 819
742 744 746 749 751 754 757 760 762 764 766 768 770 772 774 775 776 778 779 780 782 784 786 789 792 795 799 804 808 809 810 812 812 813 814 815 815 816 816 817 817 818
737 739 741 744 747 750 752 755 757 760 761 763 766 768 769 770 772 774 775 777 779 781 784 787 790 793 798 803 806 806 806 807 808 810 811 813 813 814 814 815 816 816
731 734 737 740 743 746 748 751 753 755 757 759 762 763 765 766 768 770 772 774 777 779 781 784 787 791 795 798 799 800 800 801 802 805 807 809 811 812 813 815 815 816
727 731 733 737 739 742 744 746 748 751 753 755 758 759 761 763 765 767 770 772 774 776 779 782 785 788 790 791 792 793 795 795 797 800 802 805 808 811 812 814 814 815
723 726 729 732 735 737 739 741 744 747 749 752 754 756 758 760 763 765 767 768 771 773 776 778 781 784 785 786 786 788 790 792 794 796 799 802 805 808 810 811 812 813
718 721 724 727 729 731 734 737 740 743 746 748 750 753 755 757 760 761 763 765 768 770 773 775 778 781 782 782 784 786 788 789 791 794 796 799 802 804 806 808 809 810
713 716 719 722 724 727 730 733 737 740 743 745 747 749 752 754 756 757 759 763 765 767 770 773 776 779 779 780 783 785 786 787 789 792 794 796 799 801 803 806 807 808
708 711 714 717 720 724 727 730 734 737 739 741 743 746 749 750 752 754 757 760 762 764 767 770 773 776 777 779 781 782 784 786 789 791 792 794 797 799 801 803 805 806
703 706 710 713 717 721 725 727 731 733 735 738 740 743 745 747 749 751 753 756 758 760 764 767 770 772 774 776 778 780 784 789 793 793 793 794 795 797 799 800 802 803
698 702 706 710 714 718 721 724 727 730 733 736 737 739 742 744 746 749 750 753 755 758 762 765 767 769 771 774 777 782 790 795 796 795 795 795 794 795 797 798 799 801
693 698 703 707 711 714 718 721 724 727 731 733 735 738 740 742 744 746 748 751 754 757 760 763 765 766 769 773 778 785 792 794 793 793 793 793 793 794 796 797 797 799
689 695 699 703 708 711 714 718 721 725 728 731 733 735 737 739 741 743 746 749 752 755 758 760 762 764 768 772 776 778 781 784 787 789 789 790 791 792 794 796 797 797
686 691 696 700 704 708 712 716 719 723 726 728 730 731 733 735 737 740 743 745 748 752 754 756 759 761 764 767 769 770 772 777 783 785 785 787 788 790 792 793 794 796
683 688 693 698 702 707 710 714 717 720 722 725 727 728 730 732 734 736 739 742 745 748 750 753 755 757 760 763 765 767 771 775 779 781 782 783 784 786 789 790 791 793
681 686 691 696 701 705 708 712 714 717 720 723 725 727 729 732 734 736 738 740 743 746 748 750 752 755 758 761 764 767 770 772 775 777 778 780 782 784 787 788 789 790